Weather Roundup
Issued by NWS Chicago, IL

Home | Current Version | Previous Version | Graphics & Text | Print | Product List | Glossary On
Versions: 1 2 3 4 5 6 7 8 9 10 11 12 13 14 15 16 17 18 19 20 21 22 23 24 25 26 27 28 29 30 31 32 33 34 35 36 37 38 39 40 41 42 43 44 45 46 47 48 49 50
000
NZUS59 KLOT 220403
HRRLOT

CHICAGO AREA WEATHER ROUNDUP
NATIONAL WEATHER SERVICE CHICAGO/ROMEOVILLE IL
1000 PM CST TUE FEB 21 2017

NOTE: "FAIR" INDICATES FEW OR NO CLOUDS BELOW 12,000 FEET WITH NO
SIGNIFICANT WEATHER AND/OR OBSTRUCTIONS TO VISIBILITY.

* THESE STATIONS ARE NOT UNDER NWS QUALITY CONTROL. THEY ALSO MAY NOT
  REPORT WEATHER SUCH AS PRECIPITATION OR FOG.

ILZ005-006-012>014-019>023-220500-
NORTHEAST ILLINOIS

CITY           SKY/WX    TMP DP  RH WIND       PRES   REMARKS
OHARE          MOCLDY    55  51  86 S6        29.86F
MIDWAY         MOCLDY    59  52  77 S6        29.87F
AURORA         FOG       50  49  96 CALM      29.86F VSB 1/2
LANSING*       PTCLDY    50  50 100 S6        29.88F
JOLIET*        FOG       53  53 100 CALM      29.87F VSB 1/4
WAUKEGAN       MOCLDY    43  42  97 CALM      29.86F FOG
DUPAGE AIRPORT FOG       50  48  93 CALM      29.86F VSB 3/4
WHEELING       MOCLDY    53  50  89 SE3       29.87F
KANKAKEE*      PTCLDY    55  53  94 CALM      29.89F
MORRIS*        CLEAR     54  52  95 CALM      29.86F FOG
LEWIS AIRPORT* PTCLDY    52  52 100 S5        29.87F
NORTHERLY ISL    N/A     54  52  93 S7          N/A
$$

WIZ051-052-058>065-066-070>072-220500-
SOUTHEAST WISCONSIN

CITY           SKY/WX    TMP DP  RH WIND       PRES   REMARKS
MILWAUKEE      MOCLDY    49  45  86 S5        29.86F FOG
KENOSHA*       FOG       45  43  93 S3        29.86F VSB 1/2
RACINE*        PTCLDY    43  41  93 S3        29.88F FOG
WAUKESHA       PTCLDY    48  36  61 S6        29.86F
WEST BEND      MOCLDY    45  43  93 SW5       29.84F
$$

INZ001>003-010>013-019-020-220500-
NORTHWEST INDIANA

CITY           SKY/WX    TMP DP  RH WIND       PRES   REMARKS
GARY*          MOCLDY    57  53  85 S3        29.88F
MICHIGAN CITY* NOT AVBL
RENSSELAER*    NOT AVBL
VALPARAISO     PTCLDY    55  52  89 S6        29.89F
$$

LMZ740>746-220500-
SOUTHERN LAKE MICHIGAN

STATION/POSITION TIME  SKY/WX   TEMP WIND        PRES    VSBY
                                AIR  DIR/SP/G
                 (UTC)          (F)  (DEG/KT/KT) (MB)    (MI)
HARRISON CRIB    0340            53  180/ 10/ 10   N/A
BURNHAM HARBOR   0400            56  190/  5/  7   N/A
CALUMET HARBOR   0330            57  160/  5/  6 1011.2F
BURNS HARBOR     0340            57  180/  7/ 11 1012.5F
MICHIGAN CITY    0340            57  140/  8/ 12   N/A
$$

ABBREVIATIONS USED IN REMARKS
   TC - TEMPERATURE IN CELSIUS
  WCI - WIND CHILL INDEX
   HX - HEAT INDEX
  VSB - VISIBILITY
$$




USA.gov is the U.S. government's official web portal to all federal, state and local government web resources and services.